Weather History for KSEA - November, 2013

Change the Weather History Date:

Friday, November 8, 2013

  Actual Average Record
Temperature  
Mean Temperature 51 °F 47 °F  
Max Temperature 56 °F 53 °F 64 °F (1952)
Min Temperature 45 °F 42 °F 27 °F (1948)
Degree Days  
Heating Degree Days 14 18  
Month to date heating degree days 112 137  
Since 1 July heating degree days 628 734  
Cooling Degree Days 0 0  
Month to date cooling degree days 0 0  
Year to date cooling degree days 385 189  
Moisture  
Dew Point 42 °F    
Average Humidity 68    
Maximum Humidity 77    
Minimum Humidity 59    
Precipitation  
Precipitation 0.00 in 0.22 in 0.85 in (2000)
Month to date precipitation 2.00 1.61  
Year to date precipitation 29.11 27.18  
Snow  
Snow 0.00 in - T in (1992)
Month to date snowfall 0.0  
Since 1 July snowfall 0.0  
Snow Depth 0.00 in    
Sea Level Pressure  
Sea Level Pressure 30.14 in    
Wind  
Wind Speed 9 mph (SSW)    
Max Wind Speed 23 mph    
Max Gust Speed 29 mph    
Visibility 10 miles    
Events      
T = Trace of Precipitation, MM = Missing Value Source: NWS Daily Summary

Daily Weather History Graph

Daily Weather History Graph

Search for Another Location

Airport or City:

Trip Planner

Search our weather history database for the weather conditions in past years. The results will help you decide how hot, cold, wet, or windy it might be!

Date:

Astronomy

Nov. 08, 2013 Rise Set
Actual Time 7:04 AM PST 4:41 PM PST
Civil Twilight 6:31 AM PST 5:14 PM PST
Nautical Twilight 5:54 AM PST 5:50 PM PST
Astronomical Twilight 5:18 AM PST 6:26 PM PST
Moon 12:03 PM PST (11/8) 10:10 PM PST (11/8)
Length of Visible Light 10h 43m
Length of Day
9h 37m
Waxing Crescent, 34% of the Moon is Illuminated
Nov 8
Waxing Crescent
Nov 9
First Quarter
Nov 17
Full
Nov 25
Last Quarter
Dec 2
New

Hourly Weather History & Observations

Time (PST) Temp. Windchill Dew Point Humidity Pressure Visibility Wind Dir Wind Speed Gust Speed Precip Events Conditions
12:53 AM 51.1 °F - 43.0 °F 74% 30.03 in 10.0 mi SSW 13.8 mph 23.0 mph N/A   Overcast
1:53 AM 51.1 °F - 42.1 °F 71% 30.05 in 10.0 mi SSW 15.0 mph 21.9 mph N/A   Mostly Cloudy
2:53 AM 51.1 °F - 42.1 °F 71% 30.07 in 10.0 mi South 11.5 mph - N/A   Overcast
3:53 AM 50.0 °F - 42.1 °F 74% 30.08 in 10.0 mi SSW 9.2 mph - N/A   Overcast
4:53 AM 50.0 °F - 42.1 °F 74% 30.10 in 10.0 mi SSW 9.2 mph - N/A   Overcast
5:53 AM 50.0 °F - 42.1 °F 74% 30.11 in 10.0 mi SSW 11.5 mph - N/A   Overcast
6:53 AM 50.0 °F - 43.0 °F 77% 30.12 in 10.0 mi SSW 9.2 mph - N/A   Overcast
7:53 AM 51.1 °F - 42.1 °F 71% 30.14 in 10.0 mi SW 12.7 mph - N/A   Mostly Cloudy
8:20 AM 51.8 °F - 42.8 °F 71% 30.13 in 10.0 mi SW 8.1 mph - N/A   Mostly Cloudy
8:53 AM 51.1 °F - 43.0 °F 74% 30.16 in 10.0 mi SSW 8.1 mph - N/A   Mostly Cloudy
9:46 AM 51.8 °F - 42.8 °F 71% 30.15 in 10.0 mi SSW 10.4 mph - N/A   Mostly Cloudy
9:53 AM 51.1 °F - 43.0 °F 74% 30.17 in 10.0 mi SSW 9.2 mph - N/A   Mostly Cloudy
10:39 AM 51.8 °F - 42.8 °F 71% 30.15 in 10.0 mi SSW 11.5 mph - N/A   Mostly Cloudy
10:53 AM 52.0 °F - 43.0 °F 71% 30.17 in 10.0 mi SSW 10.4 mph - N/A   Mostly Cloudy
11:53 AM 52.0 °F - 42.1 °F 69% 30.16 in 10.0 mi SSW 11.5 mph - N/A   Overcast
12:53 PM 53.1 °F - 42.1 °F 66% 30.15 in 10.0 mi SSW 9.2 mph - N/A   Mostly Cloudy
1:33 PM 53.6 °F - 42.8 °F 67% 30.14 in 10.0 mi SSW 9.2 mph - N/A   Mostly Cloudy
1:53 PM 54.0 °F - 42.1 °F 64% 30.15 in 10.0 mi SSW 8.1 mph - N/A   Mostly Cloudy
2:53 PM 55.0 °F - 41.0 °F 59% 30.16 in 10.0 mi SSW 12.7 mph 17.3 mph N/A   Mostly Cloudy
3:53 PM 54.0 °F - 42.1 °F 64% 30.16 in 10.0 mi SSW 8.1 mph - N/A   Mostly Cloudy
4:53 PM 52.0 °F - 41.0 °F 66% 30.17 in 10.0 mi SSW 6.9 mph - N/A   Mostly Cloudy
5:53 PM 51.1 °F - 41.0 °F 68% 30.17 in 10.0 mi SSE 4.6 mph - N/A   Mostly Cloudy
6:53 PM 48.9 °F - 39.9 °F 71% 30.17 in 10.0 mi South 5.8 mph - N/A   Mostly Cloudy
7:53 PM 48.9 °F - 41.0 °F 74% 30.18 in 10.0 mi South 6.9 mph - N/A   Mostly Cloudy
8:53 PM 48.9 °F - 41.0 °F 74% 30.19 in 10.0 mi South 5.8 mph - N/A   Mostly Cloudy
9:53 PM 46.9 °F - 39.9 °F 77% 30.19 in 10.0 mi SSE 8.1 mph - N/A   Scattered Clouds
10:53 PM 46.0 °F 43.1 °F 39.9 °F 79% 30.19 in 10.0 mi SSE 5.8 mph - N/A   Scattered Clouds
11:53 PM 48.0 °F - 39.0 °F 71% 30.18 in 10.0 mi SE 4.6 mph - N/A   Mostly Cloudy